User: anonymous   Login
Location: Unspecified
(0.0000°N, 0.0000°E)
Time: 08:13:31
(UTC+01:00)
Language:

Cosmos 773 Rocket - Orbit

View from above orbital plane
View from above orbital plane
View from above satellite
View from above satellite

Ground track
Ground track

The orbit data is extracted from the following two-line orbital elements,

1 08344U 75094B   14352.53813706  .00000376  00000-0  13024-3 0  6437
2 08344 074.0581 005.2576 0020664 137.2556 338.2843 14.38868767 54567
Epoch (UTC): 18 December 2014 12:54:55
Eccentricity: 0.0020664
inclination: 74.0581°
perigee height: 747 km
apogee height: 777 km
right ascension of ascending node: 5.2576°
argument of perigee: 137.2556°
revolutions per day: 14.38868767
mean anomaly at epoch: 338.2843°
orbit number at epoch: 5456

The dashed part of the orbit path shows where the satellite is in the earth's shadow,  

DLR